www.pogodaiklimat.ru

Погода и климат >> Архив погоды >> Россия >> Хакасия >> Неожиданный


АРХИВ ПОГОДЫ в Неожиданном

Время (UTC), дата Ветер
(напр.,м/с)
 
Видим.   Явления Облачность Т
(С)
Тd
(С)
f
(%)
Тe
(С)
Тes
(С)
Комфортность P
(гПа)
Po
(гПа)
Тmin
(С)
Tmax
(С)
R
(мм)
R24
(мм)
S
(см)
09 15.04 С 2 4000 м слаб. ливневой снег 10/10 1000 м
[Cb cap]
+0.6 -1.6 85 -3 -3 1011.8 948.0
12 15.04 С 2 2000 м ливневой снег 10/10 1000 м
[Cb cap]
+0.2 -1.8 86 -3 -3 1045.5 945.5 +1.0 5
15 15.04 штиль 0 н/о слаб. ливневой снег 10/10 1000 м
[Cb cap]
-1.4 -3.7 84 -3 -3 1007.7 943.9
18 15.04 штиль 0 н/о 10/10 1000 м
[Cb cap]
-2.5 -4.4 87 -4 -4 1005.4 941.3
21 15.04 штиль 0 н/о 10/10 1000 м
[Cb cap]
-2.8 -4.8 86 -4 -4 1004.1 940.0
00 16.04 штиль 0 2000 м ливневой снег 10/10 1000 м
[Cb cap]
-3.0 -5.7 82 -4 -4 1001.8 937.9 -3.0 13 25
03 16.04 С 1 2000 м ливневой снег 10/8 600 м
[Cb cap As trans]
-2.2 -5.3 79 -4 -4 1005.4 941.3 -3.4
06 16.04 З 1 4000 м слаб. ливневой снег 10/8 960 м
[Cb cap Ci fib]
+1.4 -4.9 63 0 0 1006.0 942.7
09 16.04 Ю 3 50 км {ливн. осадки} 10/10 1000 м
[Cb cap]
+1.0 -3.5 72 -3 -3 1010.3 946.7
12 16.04 Ю 3 50 км {ливн. осадки} 9/9 960 м
[Cb cap]
+0.9 -4.0 70 -3 -3 1011.4 947.8 +3.6 3
15 16.04 штиль 0 н/о 10/10 1020 м
[Sc]
-1.1 -5.0 75 -2 -2 1015.1 950.7
18 16.04 штиль 0 н/о 3/3 1000 м
[Sc]
-2.4 -6.4 74 -3 -3 1016.8 952.0
21 16.04 Ю 1 н/о 8/1 1000 м
[Sc Ac trans Ci sp]
-5.2 -7.3 85 -8 -8 1018.9 953.3
00 17.04 штиль 0 50 км 1/0
[Ac lent]
-8.0 -9.8 87 -9 -8 1018.8 952.5 -8.0 20
03 17.04 штиль 0 50 км 6/6 1000 м
[Sc]
-0.8 -7.0 63 -2 +2 1017.8 953.3 -8.2
06 17.04 ЮЗ 1 50 км 6/1 1000 м
[Sc Ac trans]
+2.2 -6.4 53 +1 +7 1015.7 952.0
09 17.04 Ю 2 50 км 2 балла +4.0 -6.3 47 +2 +8 1013.9 950.7
12 17.04 З 1 50 км 1/1 1000 м
[Sc]
+4.4 -4.9 51 +4 +4 1011.3 948.2 +5.3
15 17.04 штиль 0 н/о ясно -2.6 -4.6 86 -4 -4 1012.6 948.0
18 17.04 штиль 0 н/о туман ?/? -3.5 -4.9 90 -5 -5 1012.8 948.0
21 17.04 ЮВ 1 н/о туман ?/? -3.4 -4.8 90 -6 -6 1008.5 944.0
00 18.04 С 1 50 км {туман} 10/10 1000 м
[Sc]
-3.0 -5.0 86 -5 -5 1004.2 940.0 -4.2 16
03 18.04 ЮЗ 1 10 км ливневой дождь 10/10 1000 м
[Cb cap]
+0.6 -1.5 86 -1 -1 1000.4 937.3
06 18.04 ЮЗ 4
{19}
2000 м ливневой снег {метель} 10/10 1000 м
[Cb cap]
-2.5 -5.8 78 -8 -8 1008.3 944.0
09 18.04 ЮЗ 6-14
{17}
4000 м слаб. ливневой снег {метель} 10/5 1000 м
[Cb cap Ci sp]
-2.5 -8.6 63 -9 -9 1012.6 948.0
12 18.04 ЮЗ 7-15
{18}
2000 м ливневой снег {метель} 10/10 1000 м
[Cb cap]
-5.2 -10.7 65 -13 -13 1016.6 951.4 +2.0 13
15 18.04 ЮЗ 5-10
{18}
н/о слаб. ливневой снег {метель} 10/6 1020 м
[Cb cap Ci sp]
-7.5 -14.6 57 -15 -15 1022.5 955.9
18 18.04 ЮЗ 4
{14}
н/о слаб. ливневой снег {метель} 10/6 1020 м
[Cb cap Ac lent]
-8.2 -13.9 63 -15 -15 1027.2 960.3
21 18.04 Ю 2 н/о слаб. ливневой снег 10/10 1000 м
[Cb cap]
-9.0 -12.9 73 -13 -13 1032.8 965.3
00 19.04 ЮЗ 4 50 км в посл. час ливневой снег 6/4 1000 м
[Cb cap Ac trans]
-8.6 -14.5 62 -15 -15 1031.9 964.7 -9.0 1 22
03 19.04 ЮЗ 4 50 км 8/8 1050 м
[Cb cap]
-7.2 -13.6 60 -14 -12 1035.2 968.0
06 19.04 Ю 3 50 км {ливн. осадки} 8/8 1050 м
[Cb cap]
-3.6 -12.0 52 -8 -5 1032.9 966.7
09 19.04 СЗ 1 50 км 6/4 1000 м
[Sc Ci fib]
-0.8 -11.2 45 -2 +2 1029.3 964.0
12 19.04 штиль 0 50 км 10/0
[Ac lent Cs]
-0.6 -11.5 43 -1 -0 1025.4 960.5 +0.9 0.0
15 19.04 штиль 0 н/о 10/0
[Ac lent Cs]
-5.0 -8.6 76 -6 -6 1024.7 958.7
18 19.04 штиль 0 н/о 10/0
[Ac lent Cs]
-8.1 -10.5 83 -9 -9 1022.6 956.0
21 19.04 штиль 0 н/о 10/0
[Ac lent Cs]
-10.4 -12.4 85 -11 -11 1021.8 954.7
00 20.04 штиль 0 50 км 10/0
[Ac trans Ci sp]
-9.3 -11.8 82 -10 -9 1019.1 952.3 -10.5 20
03 20.04 штиль 0 50 км 10 баллов -1.5 -9.1 56 -2 -2 1016.6 952.0
06 20.04 СЗ 1 50 км 10/0
[Cs]
+3.2 -8.2 43 +3 +3 1014.1 950.7
09 20.04 штиль 0 4000 м слаб. ливневой снег 10/10 1020 м
[Cb cap]
+3.2 -3.6 61 +3 +3 1012.6 949.3
12 20.04 Ю 1 50 км {ливн. осадки} 10/10 1020 м
[Cb cap]
+2.4 -2.5 70 +1 +1 1010.4 947.4 +4.5 0.0
15 20.04 штиль 0 н/о в посл. час ливневой снег 10/10 1000 м
[Cb cap]
+0.5 -1.8 85 -1 -1 1010.7 947.2
18 20.04 штиль 0 н/о {ливн. осадки} 10/10 1020 м
[Cb cap]
-0.2 -2.0 88 -1 -1 1010.0 946.1
21 20.04 штиль 0 н/о 10 баллов -0.3 -2.0 88 -2 -2 1010.6 946.7
00 21.04 Ю 1 10 км слаб. ливневой снег 10/10 1000 м
[Cb cap]
-0.1 -3.8 76 -2 -2 1010.6 946.6 -0.6 0.0 18
03 21.04 З 2 10 км слаб. ливневой снег 10/10 1020 м
[Cb cap]
+1.0 -4.6 66 -2 -2 1014.6 950.7
06 21.04 ЮЗ 4 50 км в посл. час ливневой снег 10 баллов +3.0 -6.1 51 -1 -1 1015.5 952.0
09 21.04 ЮЗ 4 50 км в посл. час ливневой снег 10 баллов +2.3 -5.1 58 -2 -2 1017.1 953.3
12 21.04 Ю 3 50 км {ливн. осадки} 8/3 1000 м
[Sc Ac trans Ci sp]
+1.8 -4.7 62 -2 -2 1017.0 953.1 +3.5 0.5
15 21.04 Ю 3
{10}
н/о слаб. ливневой снег 10/10 1020 м
[Cb cap]
+0.9 -4.0 70 -3 -3 1018.8 954.7
18 21.04 ЮЗ 1 н/о слаб. ливневой снег 10/10 1020 м
[Cb cap]
+0.7 -3.9 71 -1 -1 1019.8 955.7
21 21.04 ЮЗ 1 н/о слаб. ливневой снег 10/6 1020 м
[Cb cap Ac trans Ci sp]
-0.4 -2.5 86 -2 -2 1020.8 956.2
00 22.04 Ю 1 4000 м слаб. ливневой снег 9/8 1020 м
[Cb cap Ac trans]
-0.4 -3.2 81 -2 -2 1022.5 957.8 -0.4 3 23
03 22.04 Ю 1 50 км {ливн. осадки} 6/3 1000 м
[Sc Ac trans]
+2.0 -3.4 67 +1 +5 1023.1 958.8 -0.6
06 22.04 В 1 50 км в посл. час крупа 9 баллов +2.9 -4.8 57 +2 +3 1024.1 960.0

 

Местоположение метеостанции Неожиданный (Хакасия, Россия): широта 53.28 долгота 89.07 высота над уровнем моря 526 м.

В архиве по умолчанию представлена погода в Неожиданном за последнюю неделю. Архивные данные за месяц целиком и за предыдущие месяцы, начиная с января 2011 года, Вы можете получить, выбрав интересующий диапазон дат из раскрывающегося списка и нажав кнопку "Ввод!".


*Определитесь, кто Вы:
робот инопланетянин человек

Внимание! Время в таблицах - всемирное. Для получения местного времени необходимо прибавить поправку, которая равна 7 ч.

Смотрите также архив погоды в соседних городах и на ближайших метеорологических станциях:

Погода в Усть-Кабырзе (Кемеровская область, Россия) (66 км)
Погода в Междуреченске (Кемеровская область, Россия) (71 км)
Погода в Мантуре (Хакасия, Россия) (75 км)
Погода в Таштыпе (Хакасия, Россия) (76 км)
Погода в Аскизе (Хакасия, Россия) (95 км)
Погода в Таштаголе (Кемеровская область, Россия) (98 км)
Погода в Уйбате (Хакасия, Россия) (99 км)
Погода в Коммунаре (Хакасия, Россия) (118 км)
Погода в Кузедеево (Кемеровская область, Россия) (126 км)
Погода в Бее (Хакасия, Россия) (126 км)

Пояснения к столбцам:

Ветер - указаны скорость ветра в м/с - средняя за 10 мин, порывы в срок и между сроками (в фигурных скобках) и направление, откуда дует ветер: С - северный, СВ - северо-восточный, В - восточный, ЮВ - юго-восточный, Ю - южный, ЮЗ - юго-западный, З - западный, СЗ - северо-западный.
Видимость - горизонтальная дальность видимости в метрах или километрах. При видимости от 1 до 10 км при отсутствии осадков обычно наблюдается дымка, при ухудшении видимости до 1 км и менее - туман. В сухую погоду видимость может ухудшаться дымом, пылью или мглою.
Явления - указаны атмосферные явления, наблюдавшиеся в срок или в последний час перед сроком; фигурными скобками обозначены явления, наблюдавшиеся между сроками (за 1-3 часа до срока); квадратными скобками обозначены град или гололедные отложения с указанием их диаметра в мм.
Облачность - указаны через наклонную черту общая и нижняя облачность в баллах и высота нижней границы облаков в метрах; квадратными скобками обозначены формы облаков: Ci - перистые, Cs - перисто-слоистые, Cc - перисто-кучевые, Ac - высококучевые, As - высокослоистые, Sc - слоисто-кучевые, Ns - слоисто-дождевые, Cu - кучевые, Cb - кучево-дождевые. Подробнее классификацию облаков см. в Атласе облаков (PDF).
T - Температура воздуха - температура, измеренная на высоте 2 м над землей.
Td - Температура точки росы - температура, при понижении до которой содержащийся в воздухе водяной пар достигнет насыщения.
f - Относительная влажность воздуха - влажноcть воздуха, измеренная на высоте 2 м над землей.
Te - Эффективная температура - температура, которую ощущает одетый по сезону человек в тени. Характеристика душности погоды. При расчете учитывается влияние влажности воздуха и скорости ветра на теплоощущения человека.
Tes - Эффективная температура на солнце - температура, которую ощущает человек, с поправкой на солнечный нагрев. Характеристика знойности погоды. Зависит от высоты солнца над горизонтом, облачности и скорости ветра. Ночью, в пасмурную погоду, а также при ветре 12 м/с и более поправка равна нулю.
P - Атмосферное давление - приведенное к уровню моря атмосферное давление.
Po - Атмосферное давление - измеренное на уровне метеостанции атмосферное давление.
Tmin - Минимальная температура - минимум температуры воздуха на высоте 2 м над землей.
Tmax - Максимальная температура - максимум температуры воздуха на высоте 2 м над землей.
R - Количество осадков - Количество выпавших осадков за период времени, мм. При наведении курсора мыши на число - период времени, за который выпало указанное количество осадков.
R24 - Количество осадков - Количество выпавших осадков за 24 часа, мм.
S - Снежный покров - Высота снежного покрова, см. При наведении курсора мыши на число - состояние снежного покрова и степень покрытия местности в баллах.